Location: Castillon
(43.0896°N, 0.2156°E)
Time: 18:38:35
(UTC+00:00)

Okean 1-7 Rocket - Pass Details

Date: 16 June 2021
Orbit: 616 x 650 km, 82.5° (Epoch: 22 July)

Event Time Altitude Azimuth Distance (km) Brightness Sun altitude
Exits shadow 23:06:11 38° 96° (E) 971 4.3 -22.4°
Maximum altitude 23:06:19 38° 92° (E) 969 4.4 -22.4°
Drops below altitude 10° 23:10:27 10° 24° (NNE) 2,018 6.9 -22.6°
Sets 23:12:47 0° 17° (NNE) 2,925 8.0 -22.6°
